Location: Владивосток
(43.1151°N, 131.8856°E)
Time: 19:39:08
(UTC+10:00)

COSMOS 1867 COOLANT - Visible Passes

Search period start: 06 October 2024 00:00
Search period end: 16 October 2024 00:00
Orbit: 766 x 797 km, 65.0° (Epoch: 05 October)

Date Brightness Start Highest point End Pass type
(mag) Time Alt. Az. Time Alt. Az. Time Alt. Az.
06 Oct ? 04:29:06 10° NNE 04:29:20 10° NNE 04:29:33 10° NNE visible
06 Oct ? 06:09:33 10° NNW 06:14:31 34° NE 06:19:26 10° ESE visible
07 Oct ? 05:36:10 10° NNW 05:40:45 26° NE 05:45:16 10° E visible
08 Oct ? 05:02:49 10° N 05:06:54 21° NE 05:10:58 10° E visible
08 Oct ? 06:45:34 10° NW 06:51:02 83° WSW 06:56:27 10° SSE visible
09 Oct ? 04:29:33 10° N 04:33:01 17° NNE 04:36:28 10° ENE visible
09 Oct ? 06:11:58 10° NNW 06:17:26 73° NE 06:22:50 10° SE visible
10 Oct ? 03:56:22 10° N 03:59:03 14° NNE 04:01:45 10° ENE visible
10 Oct ? 05:38:26 10° NNW 05:43:47 53° NE 05:49:04 10° SE visible
10 Oct ? 20:20:06 10° SSE 20:21:19 15° SSE 20:21:19 15° SSE visible
11 Oct ? 03:23:41 10° N 03:25:03 11° NNE 03:26:39 10° NE visible
11 Oct ? 05:04:56 10° NNW 05:10:05 40° NE 05:15:09 10° ESE visible
11 Oct ? 06:48:34 10° NW 06:53:27 35° WSW 06:58:17 10° S visible
11 Oct ? 19:47:30 10° SSE 19:50:29 18° ESE 19:50:29 18° ESE visible
11 Oct ? 21:28:39 10° SW 21:31:09 28° SW 21:31:09 28° SW visible
12 Oct ? 04:32:38 15° N 04:36:19 30° NE 04:41:04 10° ESE visible
12 Oct ? 06:14:44 10° NW 06:19:59 49° WSW 06:25:09 10° S visible
12 Oct ? 19:15:30 10° SE 19:17:48 13° ESE 19:19:30 11° E visible
12 Oct ? 20:55:00 10° SSW 21:00:09 81° SSW 21:00:09 81° SSW visible
12 Oct ? 22:40:39 10° W 22:40:46 10° W 22:40:46 10° W visible
13 Oct ? 04:01:15 22° NNE 04:02:29 24° NE 04:06:49 10° E visible
13 Oct ? 05:41:53 15° NW 05:46:26 69° WSW 05:51:48 10° SSE visible
13 Oct ? 20:21:30 10° SSW 20:26:51 64° ESE 20:28:55 37° NE visible
13 Oct ? 22:06:16 10° W 22:09:32 23° WNW 22:09:32 23° WNW visible
14 Oct ? 03:30:07 17° ENE 03:30:07 17° ENE 03:32:24 10° E visible
14 Oct ? 05:10:46 39° NNW 05:12:51 86° ENE 05:18:16 10° SSE visible
14 Oct ? 06:52:49 10° WNW 06:55:32 14° WSW 06:58:13 10° SW visible
14 Oct ? 19:48:12 10° S 19:53:19 45° ESE 19:57:24 16° NE visible
14 Oct ? 21:32:03 10° WSW 21:36:55 32° NW 21:38:00 30° NNW visible
15 Oct ? 04:39:51 58° E 04:39:51 58° E 04:44:34 10° SE visible
15 Oct ? 06:20:30 18° W 06:22:10 20° WSW 06:26:01 10° SSW visible
15 Oct ? 19:15:05 10° S 19:19:50 32° ESE 19:24:37 10° NE visible
15 Oct ? 20:57:59 10° WSW 21:03:09 42° NW 21:06:13 22° N visible
15 Oct ? 22:46:10 10° NW 22:46:48 11° NW 22:46:48 11° NW visible
